CAPE
1920 1613 1492 1620 1504 1301 1491 1484 1356 1178 1454 575 535 43 0 169 1240 1228 1085 1253 1276 980 1159 1352 925 1344 1037 891 1257 992 660 696 62 480 1132 1037 904 1769 953 1511 1157 1006 702
2139 1871 1744 1573 1536 1741 1837 1812 1722 1406 1394 1393 993 501 113 432 1272 1234 1070 869 947 1315 1197 1110 1523 1320 1381 1281 1191 1117 856 760 806 609 676 485 335 866 1141 1144 1421 1560 1313
2282 1831 2009 1686 1019 1480 1607 1960 2057 1908 1599 1336 1185 1426 1325 1385 1428 1207 1386 1132 923 1248 1382 1184 1281 1180 1294 1224 1272 1377 1321 1411 1223 1031 911 876 796 868 927 1137 1347 1558 1569
2001 1696 1649 1369 1246 992 1241 2209 2012 2136 2154 1934 1559 1658 1594 1594 1440 1434 1354 1530 1653 1799 1483 1386 1475 1327 1201 1360 851 734 744 914 754 781 646 640 847 518 786 722 763 1135 721
2215 1823 1405 1451 1912 1773 2212 2181 2206 2053 2054 2296 1713 1684 1678 1654 1551 1664 1638 1318 1537 1584 1548 1414 1204 1373 1360 1312 984 1252 772 731 1026 858 927 737 431 441 678 934 856 805 875
2110 2209 1347 2129 2125 1736 1914 1940 2075 1863 1826 1723 2076 2025 1856 1908 1530 1151 1413 1321 860 861 1103 1073 1003 1011 1175 1056 920 1107 1131 793 727 860 941 755 783 598 997 647 587 578 483
2888 2687 2535 2515 2272 2295 2256 2197 2179 2201 2029 1886 2067 2072 2020 1813 1716 961 719 1042 1150 1050 865 919 963 997 858 977 813 580 646 682 638 640 327 469 433 685 624 511 605 830 572
3104 3155 3047 3007 2785 2594 2493 2224 2107 2077 2013 1903 1827 1987 1919 1942 1672 910 675 804 861 796 804 1007 1117 916 773 742 740 608 727 736 645 389 337 498 893 1271 762 570 1132 712 560
3052 2957 2842 2750 2491 2420 2239 2100 1982 2078 1812 1676 1473 1409 1375 1451 492 414 434 887 877 809 753 438 678 585 378 271 220 311 277 411 687 589 381 263 372 448 542 847 594 610 593
2948 2437 2313 2086 1880 1724 1640 1751 1711 1599 1786 1625 1521 1375 934 895 111 67 90 339 373 394 306 487 6 0 0 1 111 210 294 393 429 474 448 227 143 256 248 349 435 319 627
2272 2055 1481 1457 1375 1421 1281 1282 1358 1031 949 782 674 439 288 205 0 0 10 83 121 89 79 67 0 0 0 0 0 0 1 0 0 24 205 346 375 354 363 272 441 509 359
2124 1715 1352 1329 1168 1079 1294 1220 1342 1454 1361 1000 630 522 380 8 0 0 0 0 0 0 0 5 0 0 0 0 0 0 0 0 0 1 24 70 199 364 400 102 68 28 15
1903 1565 1123 1351 1011 958 848 1023 1088 765 374 503 501 428 169 16 0 0 0 0 0 0 0 0 0 0 0 0 0 0 0 0 0 0 0 0 2 3 3 3 2 1 1
1717 1484 1560 1262 956 706 699 570 440 479 523 337 213 129 59 110 0 0 0 0 0 0 0 0 0 0 0 0 0 0 0 0 0 0 1 2 0 0 0 0 1 2 3
1723 1600 1498 1018 898 786 23 314 245 0 40 142 24 83 44 77 13 0 0 2 1 0 1 0 0 1 4 0 0 0 0 0 0 0 0 0 0 1 1 0 1 0 0
1426 1314 1171 979 845 542 108 0 0 0 0 0 0 0 0 0 0 0 0 0 0 0 0 1 8 5 32 9 0 0 0 0 0 0 0 0 0 0 0 0 1 10 9
1569 1124 555 457 622 392 121 2 0 0 0 0 0 0 0 0 0 0 0 0 0 0 0 3 11 1 2 16 1 0 0 0 0 0 1 0 2 0 0 0 0 0 9
1834 812 572 207 249 174 40 71 33 0 0 0 0 0 0 0 0 0 0 0 0 0 2 12 0 43 5 4 2 0 0 0 0 0 1 1 0 0 0 0 0 0 0
1027 764 590 229 52 49 14 2 7 3 9 0 0 0 0 0 0 0 0 0 30 40 32 42 0 1 2 1 1 1 0 0 0 2 1 1 0 0 0 0 0 0 0
22 734 392 164 24 0 6 1 1 106 14 8 0 0 0 0 0 0 0 0 1 2 34 47 19 43 4 0 3 0 0 1 0 1 3 3 0 0 0 0 0 0 0
752 361 0 0 39 0 6 3 10 51 20 18 25 0 0 0 0 0 11 4 0 26 2 22 27 26 18 0 0 0 0 0 0 5 4 2 3 2 5 2 0 0 0
648 268 8 0 8 0 7 2 6 2 16 41 17 0 0 0 0 16 27 25 22 51 24 33 22 1 1 1 0 3 18 18 9 0 0 1 5 4 10 11 0 0 0
200 32 0 0 10 7 10 6 14 7 7 38 14 0 0 0 0 9 28 60 40 19 23 10 0 0 0 0 0 0 0 0 13 6 5 10 2 0 2 1 4 2 2
0 2 0 0 0 20 13 0 11 10 17 14 8 0 0 0 0 9 15 18 3 2 0 0 0 0 0 0 0 0 0 0 0 0 0 0 0 0 0 0 0 0 0
0 0 0 1 0 14 23 5 1 34 21 20 13 7 0 0 0 0 0 0 0 0 0 0 0 0 0 0 0 5 0 0 0 0 0 0 0 0 1 0 0 0 3
0 0 4 0 0 39 10 7 9 23 6 6 2 8 18 8 9 13 10 2 0 0 0 0 0 0 0 4 0 4 0 0 0 0 0 0 0 0 0 0 0 0 0
CIN
-44 -48 -35 -36 -42 -28 -10 -5 -8 -12 -16 -64 -76 -161 0 -172 -2 -7 -14 -8 -6 -9 -13 -9 -12 -10 -9 -14 -23 -34 -45 -29 -57 -21 -29 -17 -18 -4 -31 -19 -27 -38 -86
-37 -33 -44 -56 -31 -16 -13 -9 -7 -17 -15 -5 -27 -94 -161 -100 -4 -12 -32 -33 -18 -18 -31 -26 -6 -6 -12 -18 -19 -25 -29 -18 -13 -12 -45 -54 -50 -17 -15 -18 -8 -5 -39
-10 -48 -26 -59 -56 -26 -2 -13 -2 -14 -13 -19 -8 -5 -16 -9 -7 -9 -10 -22 -17 -12 -12 -24 -27 -19 -14 -25 -20 -17 -11 -7 -5 -16 -30 -38 -41 -32 -9 -13 -14 -12 -22
-35 -56 -72 -78 -79 -65 -26 -4 -13 -6 -4 -7 -9 -6 -10 -10 -10 -12 -8 -7 -5 -2 -11 -6 -4 -17 -23 -22 -40 -40 -25 -18 -26 -19 -27 -29 -18 -23 -8 -10 -18 -11 -47
-22 -43 -63 -66 -32 -21 -1 -2 -10 -8 -11 -6 -14 -6 -5 -3 -5 -9 -11 -15 -4 -2 -3 -3 -5 -3 -11 -15 -20 -27 -37 -30 -7 -8 -8 -15 -21 -20 -12 -12 -18 -11 -24
-28 -16 -46 -7 -13 -31 -15 -12 -10 -8 -8 -13 -19 -15 -7 -4 -4 -11 -14 -14 -27 -23 -18 -24 -16 -15 -10 -10 -17 -6 -19 -30 -26 -15 -12 -5 -11 -13 -4 -17 -45 -6 -24
-12 -12 -6 -8 -15 -15 -11 -10 -13 -7 -3 -5 -4 -10 -14 -19 -18 -36 -54 -16 -12 -18 -22 -23 -19 -11 -17 -12 -19 -32 -20 -26 -33 -23 -25 -33 -20 -18 -21 -21 -11 -8 -22
-11 -2 -3 -7 -9 -8 -9 -13 -15 -11 -12 -15 -12 -9 -4 -6 -19 -78 -87 -52 -30 -17 -8 -6 -9 -24 -23 -16 -20 -17 -16 -17 -20 -39 -37 -44 -27 -18 -19 -21 -14 -23 -28
-11 -8 -7 -10 -16 -17 -20 -18 -20 -13 -11 -9 -11 -14 -9 -13 -118 -118 -109 -47 -23 -21 -20 -26 -7 -9 -20 -54 -36 -17 -17 -18 -24 -36 -53 -58 -46 -41 -32 -7 -14 -10 -13
-11 -28 -30 -35 -39 -39 -35 -27 -25 -18 -5 -8 -3 0 -23 -15 -205 -224 -180 -55 -27 -11 -14 -3 -90 0 0 -29 -57 -20 -11 -16 -9 -7 -22 -56 -72 -56 -68 -37 -16 -9 -4
-54 -65 -106 -94 -92 -71 -73 -59 -44 -60 -51 -59 -62 -74 -92 -167 0 0 -192 -141 -82 -93 -72 -37 -14 0 0 0 0 0 -54 0 0 -67 -34 -15 -13 -31 -29 -58 -39 -13 -8
-77 -98 -116 -104 -99 -98 -62 -58 -36 -16 -6 -19 -44 -46 -65 -200 0 0 0 0 0 0 0 -9 0 0 0 0 0 0 0 0 0 0 -63 -29 -2 -6 -10 -75 -149 -163 -65
-94 -112 -146 -92 -124 -128 -121 -78 -44 -60 -113 -68 -52 -60 -177 -242 0 0 0 0 0 0 0 0 0 0 0 0 0 0 0 0 0 0 0 0 0 0 0 0 0 0 0
-116 -114 -71 -93 -122 -137 -117 -121 -121 -97 -82 -128 -169 -198 -243 -171 -3 -6 0 0 0 0 0 0 0 0 0 0 0 0 0 0 0 0 0 0 0 0 0 0 0 0 0
-81 -85 -84 -142 -128 -103 -347 -72 -249 0 -193 -222 -168 -202 -238 -169 -98 0 -1 -5 -5 0 -2 0 -1 -39 -37 -1 0 0 0 0 0 0 0 0 0 0 0 0 0 0 0
-107 -100 -87 -95 -94 -149 -334 0 0 0 0 0 0 -3 0 0 0 0 0 0 0 0 0 -1 -82 -58 -44 -43 0 0 0 0 0 0 0 0 0 0 0 0 0 -34 -66
-50 -74 -128 -107 -87 -131 -232 -371 0 0 0 0 0 0 0 0 0 0 0 0 0 0 0 -22 -89 -4 -1 -46 -1 -2 0 0 0 0 0 0 0 0 0 0 0 -2 -57
-6 -65 -68 -138 -96 -131 -244 -196 -248 0 0 0 0 0 0 0 0 0 0 0 0 0 -21 -59 -2 -40 -6 -5 -9 -2 0 0 0 0 0 0 0 0 0 0 0 0 0
-6 -54 -51 -105 -184 -151 -149 -119 -135 -155 -194 0 0 0 0 0 0 0 0 0 -37 -42 -48 -40 -4 -20 -15 -8 -6 -5 0 0 -3 -1 -2 -1 0 0 0 0 0 0 0
-73 -24 -58 -102 -167 -90 -177 -1 -1 -90 -156 -112 0 0 0 0 0 0 0 0 -4 -11 -24 -17 -19 -20 -2 0 -2 -1 -3 -10 -6 -4 -1 -1 0 0 0 0 0 0 0
-6 -23 -69 -7 -154 0 -2 -1 -1 -94 -11 -26 -29 0 0 0 0 -1 -28 -15 -1 -5 -16 -7 -5 -4 -7 0 0 -1 -1 0 0 -15 -10 -8 -3 -10 -5 -2 0 0 0
-23 -93 -49 0 -80 0 -3 -1 -1 -1 -2 -18 -16 0 0 0 0 -22 -16 -17 -14 -16 -10 -8 -4 -2 -4 -1 -3 -1 -7 -17 -22 -1 0 -6 -12 -6 -5 -1 -1 0 0
-71 -161 0 0 -6 -5 -6 -2 -1 -1 -2 -16 -50 0 0 0 0 -24 -29 -32 -8 -20 -6 -5 -1 0 0 0 0 0 0 0 -4 -5 -2 -3 -1 0 -2 -1 -2 -3 -2
0 -44 0 0 0 -6 -2 0 -5 -10 -1 -2 -9 0 0 0 0 -6 -4 -3 -1 0 0 0 0 0 0 -1 -2 0 0 0 0 0 0 0 0 0 0 0 0 0 0
0 0 0 -3 0 -10 -12 -2 -2 -2 -7 -4 -2 -5 -1 0 0 0 0 0 0 0 0 0 0 0 0 0 0 -6 0 0 0 0 0 0 0 0 -1 0 0 0 -4
0 0 -2 0 0 -21 -2 -6 -3 -2 -7 -7 -5 -2 -2 -7 -4 -3 -5 -6 0 0 0 0 0 0 0 -4 0 -9 0 0 0 0 0 0 0 0 0 0 0 0 0
Wind_Speed
19 16 15 7 25 27 29 20 17 11 3 3 9 4 17 31 17 5 13 29 23 22 24 27 24 22 23 25 25 26 26 25 22 31 24 25 25 16 9 12 13 7 2
19 15 16 14 32 20 21 19 10 3 3 3 2 5 9 18 18 4 4 5 16 14 16 22 23 19 17 21 23 23 25 21 25 28 31 32 32 28 17 16 15 10 9
17 14 15 21 30 30 20 12 8 6 4 5 4 4 6 10 6 7 7 7 10 16 15 14 17 20 22 19 22 25 24 26 20 22 25 28 29 27 20 17 16 17 17
21 11 9 15 15 15 18 9 5 6 4 6 6 5 5 5 6 7 9 14 16 20 21 20 17 15 17 19 19 20 26 26 23 21 23 23 23 27 23 19 18 14 17
7 10 9 9 6 12 16 4 6 7 4 6 8 5 8 8 8 9 12 12 16 17 20 21 22 20 19 17 21 21 22 24 22 23 19 19 24 27 26 20 19 18 15
9 10 13 14 6 9 11 13 12 7 5 6 6 10 12 14 8 9 9 9 11 15 17 21 26 29 29 25 26 22 21 21 22 24 28 27 23 23 24 21 19 17 21
11 12 15 15 12 8 7 7 9 7 5 6 6 6 8 9 10 15 25 20 16 14 14 16 17 22 27 32 32 32 29 24 25 28 30 30 31 29 29 29 23 21 20
9 15 18 19 15 8 6 5 5 4 5 5 6 8 8 9 7 9 15 16 16 13 16 18 17 19 26 32 39 40 36 36 34 33 31 32 31 31 30 29 28 26 25
6 10 15 16 14 15 14 13 11 9 6 3 3 6 12 15 13 10 11 12 12 17 17 19 22 24 29 30 32 36 39 37 34 35 35 34 33 31 30 28 27 26 26
5 6 12 13 13 14 14 14 14 14 15 16 16 15 17 15 14 11 12 11 11 17 23 19 23 24 27 26 25 26 30 33 36 37 34 36 35 34 32 30 28 27 25
5 5 5 5 7 9 10 11 9 10 10 13 14 15 15 14 15 17 17 15 16 19 20 22 21 25 25 25 25 26 28 34 30 34 35 36 33 31 29 27 27 26 25
5 5 5 5 5 6 7 8 8 9 10 11 12 13 13 15 15 17 17 15 16 16 17 17 18 20 21 22 24 26 29 30 30 30 32 35 38 36 29 25 23 23 23
7 5 5 5 6 6 7 8 9 10 11 12 13 11 12 14 16 16 17 17 16 15 15 14 15 17 18 20 24 26 27 26 26 26 29 30 31 30 28 24 23 22 21
6 6 5 5 6 6 7 8 9 10 10 11 11 11 11 11 13 13 15 15 15 16 16 15 16 17 18 19 21 25 26 27 26 25 25 24 23 22 21 23 20 22 18
4 6 6 5 4 7 12 12 11 13 12 11 12 12 11 9 11 12 13 13 13 14 14 13 14 13 13 17 20 22 24 26 28 28 26 22 21 18 15 15 13 14 12
2 3 4 5 7 8 10 12 15 13 13 12 12 13 13 12 11 13 13 13 13 14 13 13 12 12 13 15 16 19 19 20 22 24 25 24 22 18 16 17 17 13 13
7 5 5 9 7 8 8 10 12 14 14 14 13 13 13 10 11 11 11 10 10 11 11 11 11 11 12 13 15 15 17 17 16 18 19 20 21 19 17 17 16 14 13
14 8 9 10 10 10 8 7 7 9 9 10 12 11 10 10 9 9 10 11 11 10 10 12 12 12 13 13 13 13 15 15 14 14 14 15 16 17 17 16 14 14 13
29 14 13 8 9 9 7 6 5 6 8 10 9 10 9 9 9 9 9 10 10 9 9 10 10 11 11 13 14 14 12 13 13 13 13 13 14 14 15 14 14 13 12
43 22 3 9 8 11 7 5 6 5 7 7 7 7 7 7 8 8 8 8 9 9 8 9 8 9 11 12 13 13 13 12 13 12 13 12 12 12 13 13 12 12 11
19 8 4 5 6 5 3 3 4 5 5 6 6 7 9 8 7 8 8 8 8 8 9 9 9 9 10 11 11 11 11 11 12 11 11 10 10 10 10 11 11 11 10
2 5 0 8 6 6 2 4 4 6 5 4 4 4 7 6 6 7 7 7 9 9 10 9 8 9 8 9 10 9 8 9 10 11 9 9 9 8 7 9 9 8 7
7 4 7 2 6 4 5 3 3 5 5 4 5 5 5 5 7 6 8 7 7 8 9 8 9 8 9 10 9 10 10 12 9 10 10 10 10 9 8 7 6 8 9
6 2 5 4 9 9 4 7 11 8 6 6 4 5 7 6 5 6 5 6 9 9 9 8 8 8 8 9 8 9 8 10 12 11 10 11 8 6 7 6 5 4 5
6 6 6 4 3 4 12 6 8 10 9 14 11 6 5 4 6 6 7 7 7 7 7 8 8 7 8 9 9 13 11 8 11 13 10 9 10 11 9 8 12 16 14
8 3 1 4 1 3 7 5 10 10 10 12 17 15 12 10 8 7 6 5 7 7 8 7 8 7 7 5 6 8 8 8 11 12 11 12 10 10 11 13 15 16 18
Wind_Direction
163 160 165 185 185 193 205 184 184 288 310 148 164 250 293 220 192 183 186 230 283 289 289 290 301 304 305 302 309 305 305 308 308 286 306 309 318 350 17 8 360 19 83
168 163 167 168 240 180 186 185 179 235 233 269 197 182 184 192 194 232 203 204 297 302 304 300 301 307 311 308 308 309 305 307 308 302 292 294 296 308 336 338 340 341 341
168 168 167 179 197 203 188 180 182 185 230 208 213 217 207 199 236 269 264 260 286 293 301 303 304 300 300 308 306 302 305 303 310 309 307 304 303 303 320 327 322 321 327
174 176 177 178 180 184 188 187 198 182 205 199 202 262 244 245 232 264 276 287 290 294 296 298 299 298 299 300 303 303 301 301 306 305 306 308 311 305 309 314 321 322 324
216 193 196 192 210 187 190 205 192 192 249 288 298 275 290 289 289 288 290 287 295 296 297 296 295 294 294 291 296 298 301 299 299 300 301 304 305 306 307 310 312 321 326
254 260 191 278 261 198 198 199 200 211 253 234 278 296 296 297 280 233 259 281 291 298 298 299 294 292 294 294 293 291 294 291 291 295 295 298 304 307 311 312 313 305 310
272 273 275 279 281 280 210 211 204 211 231 233 253 246 233 224 225 300 298 297 293 292 294 297 301 301 296 292 292 291 289 283 282 288 289 290 294 299 303 303 306 306 308
279 281 279 280 286 286 278 242 216 251 250 263 237 227 229 232 237 300 312 309 304 292 299 302 301 302 300 296 294 290 290 287 287 285 283 287 290 294 297 299 301 302 304
294 289 283 284 289 293 297 301 308 312 312 259 248 221 214 217 328 328 327 324 321 315 312 309 308 310 308 306 306 296 287 286 289 287 286 288 289 290 291 294 294 297 299
323 306 292 293 294 295 299 304 311 313 316 317 319 325 325 332 337 341 335 333 327 324 317 322 321 319 318 319 313 310 302 299 295 291 290 289 289 288 289 288 287 287 290
17 12 352 336 319 313 314 321 335 338 336 328 328 328 333 336 334 334 333 333 328 325 322 320 324 324 321 320 320 316 310 306 309 299 296 293 293 292 291 288 288 280 281
39 30 32 22 6 354 351 354 3 354 352 346 341 340 349 351 351 345 345 346 341 337 334 335 333 333 335 333 330 324 320 315 310 306 300 296 294 293 292 288 289 292 291
81 54 45 40 1 4 5 354 354 354 345 340 341 351 351 356 358 0 1 2 5 3 358 0 2 357 352 349 344 339 334 331 328 325 314 307 306 304 300 293 290 289 293
83 71 51 21 8 15 13 9 359 347 351 344 345 345 352 2 2 7 8 11 17 19 21 22 23 27 30 25 19 14 11 5 353 339 330 329 328 327 313 313 310 299 292
82 75 67 30 26 352 333 337 341 337 338 341 342 345 348 354 359 359 359 5 11 16 21 27 23 26 28 23 15 12 18 20 17 16 16 7 353 347 356 6 4 10 357
319 41 19 2 346 342 334 330 332 340 336 341 343 343 345 352 352 346 348 350 358 2 9 13 14 19 13 12 14 11 19 23 29 34 35 33 30 10 348 347 350 347 16
292 324 341 322 339 342 349 346 328 328 334 336 337 339 341 355 353 355 358 10 21 30 32 35 35 40 30 21 22 24 23 25 30 32 36 34 32 24 30 11 2 11 15
281 302 318 322 328 332 349 2 3 358 349 349 346 352 1 9 16 18 22 28 47 56 44 37 40 43 38 36 39 40 34 35 38 40 43 47 47 45 21 31 2 338 354
250 290 300 332 337 335 353 2 7 21 7 7 7 5 21 25 24 31 37 40 38 45 52 48 47 53 41 30 27 31 40 40 35 30 37 37 32 35 34 36 35 41 49
211 267 292 322 353 324 347 10 18 37 24 23 24 34 48 28 31 52 60 58 46 43 52 63 82 73 56 48 33 29 27 34 32 34 34 38 42 38 32 35 36 31 36
173 290 316 341 337 348 38 73 38 45 41 37 45 80 91 77 74 88 82 77 96 95 120 108 84 88 75 64 72 75 72 63 55 61 63 58 58 48 50 35 30 28 29
190 129 37 318 319 340 22 18 6 358 13 42 28 53 106 64 20 29 96 74 113 116 115 92 71 59 82 69 63 68 77 69 56 64 72 66 62 61 57 21 14 22 27
301 328 343 346 324 340 337 6 4 4 2 49 11 9 17 6 357 40 111 81 69 109 81 73 58 53 35 30 32 31 23 17 32 29 26 29 22 27 37 45 42 7 355
295 293 346 331 314 332 334 314 310 320 325 321 329 0 5 3 13 23 54 42 9 15 24 36 35 33 28 21 29 30 30 19 12 20 18 13 24 31 27 18 26 26 14
290 310 321 358 338 317 313 310 299 302 299 294 302 326 346 14 3 4 19 9 17 19 24 16 10 13 12 0 6 355 9 25 14 8 20 19 5 358 356 354 343 332 334
289 316 327 18 5 285 316 319 298 298 298 291 292 303 313 326 338 352 5 21 13 12 4 357 358 1 357 1 2 355 0 2 353 351 351 352 357 351 344 335 330 326 323